Weather History for Omak, WA

Change the Weather History Date:

Wednesday, December 11, 2013

  Actual Average Record
Temperature  
Mean Temperature 15 °F 26 °F  
Max Temperature 24 °F 32 °F 55 °F (1939)
Min Temperature 5 °F 20 °F -1 °F (1932)
Degree Days  
Heating Degree Days 50 39  
Month to date heating degree days 515 410  
Since 1 July heating degree days 2112 1943  
Cooling Degree Days 0 0  
Month to date cooling degree days 0 0  
Year to date cooling degree days 814 665  
Moisture  
Dew Point 10 °F    
Average Humidity 72    
Maximum Humidity 87    
Minimum Humidity 57    
Precipitation  
Precipitation 0.00 in 0.08 in 0.82 in (1969)
Month to date precipitation T 0.77  
Year to date precipitation 9.89 13.28  
Sea Level Pressure  
Sea Level Pressure 30.48 in    
Wind  
Wind Speed 1 mph (WSW)    
Max Wind Speed 6 mph    
Max Gust Speed 7 mph    
Visibility 10 miles    
Events      
T = Trace of Precipitation, MM = Missing Value Source: NWS Daily Summary

Daily Weather History Graph

Daily Weather History Graph

Search for Another Location

Airport:

Trip Planner

Search our weather history database for the weather conditions in past years. The results will help you decide how hot, cold, wet, or windy it might be!

Date:

Astronomy

Dec. 11, 2013 Rise Set
Actual Time 7:40 AM PST 4:02 PM PST
Civil Twilight 7:03 AM PST 4:39 PM PST
Nautical Twilight 6:23 AM PST 5:19 PM PST
Astronomical Twilight 5:45 AM PST 5:57 PM PST
Moon 12:59 PM PST (12/11) 1:44 AM PST (12/11)
Length of Visible Light 9h 36m
Length of Day
8h 22m
Waxing Gibbous, 72% of the Moon is Illuminated
Dec 11
Waxing Gibbous
Dec 17
Full
Dec 25
Last Quarter
Jan 1
New
Jan 7
First Quarter

Hourly Weather History & Observations

Time (PST) Temp. Windchill Dew Point Humidity Pressure Visibility Wind Dir Wind Speed Gust Speed Precip Events Conditions
12:53 AM 5.0 °F - 1.9 °F 87% 30.54 in 10.0 mi Calm Calm - N/A   Clear
1:53 AM 7.0 °F 0.1 °F 1.9 °F 80% 30.55 in 10.0 mi WNW 3.5 mph - N/A   Mostly Cloudy
2:53 AM 12.9 °F 6.9 °F 7.0 °F 77% 30.53 in 10.0 mi West 3.5 mph - N/A   Overcast
3:53 AM 15.1 °F - 8.1 °F 74% 30.54 in 10.0 mi Calm Calm - N/A   Overcast
4:53 AM 15.1 °F - 8.1 °F 74% 30.53 in 10.0 mi Calm Calm - N/A   Overcast
5:53 AM 16.0 °F - 8.1 °F 71% 30.53 in 10.0 mi Calm Calm - N/A   Overcast
6:18 AM 15.8 °F - 8.6 °F 73% 30.45 in 10.0 mi Calm Calm - N/A   Overcast
6:53 AM 16.0 °F - 10.0 °F 77% 30.52 in 10.0 mi Calm Calm - N/A   Overcast
7:53 AM 17.1 °F - 9.0 °F 71% 30.52 in 10.0 mi Calm Calm - N/A   Overcast
8:53 AM 17.1 °F - 8.1 °F 68% 30.53 in 10.0 mi Calm Calm - N/A   Overcast
9:53 AM 19.0 °F - 8.1 °F 62% 30.54 in 10.0 mi Calm Calm - N/A   Overcast
10:53 AM 19.9 °F - 9.0 °F 62% 30.54 in 10.0 mi Calm Calm - N/A   Overcast
11:53 AM 21.0 °F - 9.0 °F 60% 30.52 in 10.0 mi Calm Calm - N/A   Overcast
12:53 PM 21.0 °F - 10.9 °F 65% 30.50 in 10.0 mi Calm Calm - N/A   Overcast
1:53 PM 21.9 °F - 10.9 °F 63% 30.49 in 10.0 mi Calm Calm - N/A   Overcast
2:53 PM 21.9 °F 17.2 °F 10.9 °F 63% 30.48 in 10.0 mi South 3.5 mph - N/A   Overcast
3:53 PM 21.0 °F - 10.9 °F 65% 30.45 in 10.0 mi Calm Calm - N/A   Overcast
4:53 PM 21.9 °F - 10.9 °F 63% 30.45 in 10.0 mi Calm Calm - N/A   Overcast
5:53 PM 21.9 °F - 12.0 °F 66% 30.44 in 10.0 mi Calm Calm - N/A   Overcast
6:53 PM 21.9 °F - 12.0 °F 66% 30.45 in 10.0 mi Calm Calm - N/A   Overcast
7:15 PM 23.0 °F - 12.2 °F 63% 30.37 in 10.0 mi Calm Calm - N/A   Overcast
7:53 PM 21.9 °F 17.2 °F 12.0 °F 66% 30.43 in 10.0 mi West 3.5 mph - N/A   Overcast
8:53 PM 23.0 °F - 12.9 °F 65% 30.43 in 10.0 mi Calm Calm - N/A   Overcast
9:50 PM 23.0 °F - 12.2 °F 63% 30.35 in 10.0 mi Calm Calm - N/A   Overcast
9:53 PM 23.0 °F - 12.9 °F 65% 30.41 in 10.0 mi Calm Calm - N/A   Overcast
10:53 PM 23.0 °F - 12.9 °F 65% 30.40 in 10.0 mi Calm Calm - N/A   Overcast
11:53 PM 23.0 °F - 12.9 °F 65% 30.38 in 10.0 mi Calm Calm - N/A   Overcast